WWW207 KTNX-KLAS

Flight info

Callsign WWW207
Flight time 0h 35m
Altitude 15000
Route LEAHI1 LEAHI ESSAA BYRDY JAYSN3
Aircraft B736/M-SDE2E3FGHIRWXY/LB1

Departure

Time 2026-05-05 03:09
Airport Tonopah Test Range Airport (KTNX)

Arrival

Time 2026-05-05 03:44
Airport Harry Reid International Airport (KLAS)
Time Latitude Longitude Altitude Speed Heading
2026-05-05 02:53 37.78448 -116.76693 5553 ft 0 kts 67°
2026-05-05 03:03 37.78450 -116.76687 5553 ft 2 kts 67°
2026-05-05 03:03 37.78468 -116.76662 5553 ft 7 kts 20°
2026-05-05 03:03 37.78542 -116.76691 5553 ft 14 kts 332°
2026-05-05 03:03 37.78535 -116.76802 5555 ft 14 kts 248°
2026-05-05 03:04 37.78518 -116.76924 5554 ft 15 kts 306°
2026-05-05 03:04 37.78626 -116.76989 5555 ft 21 kts 336°
2026-05-05 03:04 37.78792 -116.77077 5555 ft 31 kts 337°
2026-05-05 03:04 37.79000 -116.77186 5555 ft 33 kts 337°
2026-05-05 03:05 37.79212 -116.77298 5555 ft 34 kts 337°
2026-05-05 03:05 37.79435 -116.77417 5553 ft 36 kts 336°
2026-05-05 03:05 37.79671 -116.77541 5553 ft 38 kts 337°
2026-05-05 03:05 37.79924 -116.77675 5553 ft 45 kts 337°
2026-05-05 03:06 37.80219 -116.77833 5553 ft 45 kts 338°
2026-05-05 03:06 37.80493 -116.77977 5553 ft 42 kts 337°
2026-05-05 03:06 37.80750 -116.78114 5554 ft 39 kts 337°
2026-05-05 03:06 37.80987 -116.78239 5554 ft 36 kts 337°
2026-05-05 03:07 37.81206 -116.78355 5553 ft 33 kts 337°
2026-05-05 03:07 37.81404 -116.78460 5555 ft 30 kts 336°
2026-05-05 03:07 37.81492 -116.78575 5553 ft 15 kts 256°
2026-05-05 03:07 37.81453 -116.78697 5553 ft 15 kts 248°
2026-05-05 03:08 37.81407 -116.78830 5553 ft 17 kts 236°
2026-05-05 03:08 37.81292 -116.78816 5555 ft 24 kts 157°
2026-05-05 03:08 37.80944 -116.78631 5553 ft 85 kts 157°
2026-05-05 03:08 37.80233 -116.78255 5554 ft 135 kts 158°
2026-05-05 03:09 37.79277 -116.77735 5713 ft 158 kts 157°
2026-05-05 03:09 37.78277 -116.77112 6181 ft 165 kts 153°
2026-05-05 03:09 37.77616 -116.76650 6555 ft 162 kts 156°
2026-05-05 03:09 37.76521 -116.76545 6940 ft 169 kts 203°
2026-05-05 03:10 37.75682 -116.77563 7445 ft 173 kts 233°
2026-05-05 03:10 37.74969 -116.78908 7835 ft 195 kts 233°
2026-05-05 03:10 37.73812 -116.80896 8106 ft 229 kts 220°
2026-05-05 03:10 37.72322 -116.81738 8426 ft 248 kts 189°
2026-05-05 03:11 37.71127 -116.81950 8649 ft 266 kts 187°
2026-05-05 03:11 37.69239 -116.82238 9306 ft 277 kts 187°
2026-05-05 03:11 37.67322 -116.82524 10251 ft 280 kts 187°
2026-05-05 03:11 37.65309 -116.82841 10623 ft 304 kts 188°
2026-05-05 03:12 37.63141 -116.83200 10834 ft 331 kts 188°
2026-05-05 03:12 37.60796 -116.83601 11296 ft 348 kts 188°
2026-05-05 03:12 37.58342 -116.84029 12014 ft 356 kts 188°
2026-05-05 03:12 37.55892 -116.84463 12768 ft 362 kts 188°
2026-05-05 03:13 37.53391 -116.84910 13632 ft 366 kts 188°
2026-05-05 03:13 37.50846 -116.85368 14333 ft 369 kts 188°
2026-05-05 03:13 37.48297 -116.85828 14676 ft 370 kts 188°
2026-05-05 03:13 37.45750 -116.86289 14764 ft 374 kts 188°
2026-05-05 03:14 37.43126 -116.86763 14887 ft 391 kts 188°
2026-05-05 03:14 37.40397 -116.87257 15381 ft 401 kts 188°
2026-05-05 03:14 37.37600 -116.87763 15910 ft 409 kts 188°
2026-05-05 03:14 37.34777 -116.88272 16784 ft 407 kts 188°
2026-05-05 03:15 37.31987 -116.88774 17810 ft 403 kts 188°
2026-05-05 03:15 37.29236 -116.89269 18534 ft 398 kts 188°
2026-05-05 03:15 37.26517 -116.89759 18742 ft 394 kts 189°
2026-05-05 03:15 37.23801 -116.90248 18742 ft 396 kts 189°
2026-05-05 03:16 37.21074 -116.90738 18759 ft 394 kts 188°
2026-05-05 03:16 37.18362 -116.91226 18754 ft 395 kts 189°
2026-05-05 03:16 37.15676 -116.91709 18745 ft 394 kts 189°
2026-05-05 03:16 37.12958 -116.92196 18746 ft 394 kts 188°
2026-05-05 03:17 37.10239 -116.92646 18742 ft 395 kts 184°
2026-05-05 03:17 37.07523 -116.92255 18746 ft 396 kts 163°
2026-05-05 03:17 37.05026 -116.90776 18731 ft 399 kts 147°
2026-05-05 03:17 37.02966 -116.88462 18745 ft 399 kts 135°
2026-05-05 03:18 37.01055 -116.85948 18737 ft 398 kts 135°
2026-05-05 03:18 36.99177 -116.83415 18743 ft 397 kts 135°
2026-05-05 03:18 36.97302 -116.80885 18731 ft 396 kts 135°
2026-05-05 03:18 36.95421 -116.78366 18738 ft 395 kts 135°
2026-05-05 03:19 36.91656 -116.73373 18747 ft 395 kts 135°
2026-05-05 03:19 36.89759 -116.70880 18747 ft 396 kts 135°
2026-05-05 03:19 36.87861 -116.68392 18733 ft 397 kts 136°
2026-05-05 03:20 36.85955 -116.65897 18734 ft 397 kts 136°
2026-05-05 03:20 36.84074 -116.63429 18735 ft 398 kts 136°
2026-05-05 03:20 36.82168 -116.60928 18762 ft 398 kts 136°
2026-05-05 03:20 36.80250 -116.58427 18760 ft 398 kts 136°
2026-05-05 03:21 36.78334 -116.55930 18743 ft 399 kts 137°
2026-05-05 03:21 36.76420 -116.53434 18752 ft 399 kts 136°
2026-05-05 03:21 36.74502 -116.50933 18748 ft 398 kts 136°
2026-05-05 03:21 36.72588 -116.48438 18758 ft 398 kts 136°
2026-05-05 03:22 36.70671 -116.45939 18754 ft 399 kts 137°
2026-05-05 03:22 36.68747 -116.43438 18758 ft 400 kts 137°
2026-05-05 03:22 36.66941 -116.40789 18755 ft 404 kts 128°
2026-05-05 03:22 36.65519 -116.37758 18777 ft 408 kts 118°
2026-05-05 03:23 36.64503 -116.34441 18786 ft 411 kts 111°
2026-05-05 03:23 36.63607 -116.31056 18774 ft 412 kts 111°
2026-05-05 03:23 36.62720 -116.27652 18778 ft 412 kts 111°
2026-05-05 03:23 36.61827 -116.24261 18777 ft 412 kts 111°
2026-05-05 03:24 36.60920 -116.20877 18780 ft 411 kts 111°
2026-05-05 03:24 36.60017 -116.17548 18778 ft 410 kts 112°
2026-05-05 03:24 36.59100 -116.14191 18779 ft 409 kts 113°
2026-05-05 03:24 36.58181 -116.10834 18782 ft 410 kts 113°
2026-05-05 03:25 36.57259 -116.07475 18801 ft 412 kts 112°
2026-05-05 03:25 36.56331 -116.04097 18817 ft 413 kts 113°
2026-05-05 03:25 36.55408 -116.00703 18804 ft 415 kts 112°
2026-05-05 03:25 36.54487 -115.97293 18796 ft 416 kts 113°
2026-05-05 03:26 36.53566 -115.93884 18814 ft 415 kts 112°
2026-05-05 03:26 36.52647 -115.90495 18819 ft 413 kts 112°
2026-05-05 03:26 36.51522 -115.87236 18790 ft 406 kts 124°
2026-05-05 03:26 36.49796 -115.84518 18810 ft 398 kts 139°
2026-05-05 03:27 36.47643 -115.82410 18799 ft 391 kts 152°
2026-05-05 03:27 36.45284 -115.80766 18842 ft 389 kts 154°
2026-05-05 03:27 36.42909 -115.79140 18816 ft 390 kts 155°
2026-05-05 03:27 36.40559 -115.77510 18806 ft 389 kts 155°
2026-05-05 03:28 36.38240 -115.75899 18839 ft 377 kts 155°
2026-05-05 03:28 36.35964 -115.74299 18817 ft 369 kts 155°
2026-05-05 03:28 36.33761 -115.72747 18838 ft 358 kts 155°
2026-05-05 03:28 36.31654 -115.71268 18849 ft 346 kts 155°
2026-05-05 03:29 36.29615 -115.69824 18835 ft 329 kts 155°
2026-05-05 03:29 36.27673 -115.68448 18839 ft 313 kts 155°
2026-05-05 03:29 36.25828 -115.67140 18846 ft 298 kts 156°
2026-05-05 03:29 36.24069 -115.65893 18844 ft 285 kts 157°
2026-05-05 03:30 36.22388 -115.64698 18877 ft 272 kts 157°
2026-05-05 03:30 36.20784 -115.63569 18825 ft 258 kts 157°
2026-05-05 03:30 36.19258 -115.62493 18866 ft 251 kts 158°
2026-05-05 03:30 36.17743 -115.61434 18865 ft 250 kts 158°
2026-05-05 03:31 36.16295 -115.60218 18747 ft 257 kts 142°
2026-05-05 03:31 36.15151 -115.58489 18462 ft 262 kts 134°
2026-05-05 03:31 36.14087 -115.56664 18064 ft 267 kts 133°
2026-05-05 03:31 36.12991 -115.54778 17528 ft 275 kts 132°
2026-05-05 03:32 36.11822 -115.52779 16498 ft 299 kts 131°
2026-05-05 03:32 36.10561 -115.50618 15558 ft 318 kts 130°
2026-05-05 03:32 36.09256 -115.48379 15060 ft 320 kts 131°
2026-05-05 03:32 36.07954 -115.46174 14799 ft 318 kts 130°
2026-05-05 03:33 36.06661 -115.43970 14467 ft 314 kts 130°
2026-05-05 03:33 36.05389 -115.41803 14204 ft 309 kts 131°
2026-05-05 03:33 36.04132 -115.39665 13855 ft 307 kts 130°
2026-05-05 03:33 36.02871 -115.37527 13452 ft 307 kts 131°
2026-05-05 03:34 36.01787 -115.35251 13081 ft 311 kts 113°
2026-05-05 03:34 36.01400 -115.32690 12770 ft 313 kts 98°
2026-05-05 03:34 36.01273 -115.30021 12436 ft 310 kts 96°
2026-05-05 03:34 36.01176 -115.27402 12077 ft 308 kts 96°
2026-05-05 03:35 36.01074 -115.24769 11753 ft 304 kts 97°
2026-05-05 03:35 36.00965 -115.22221 11584 ft 295 kts 97°
2026-05-05 03:35 36.00850 -115.19716 11381 ft 289 kts 97°
2026-05-05 03:35 36.00731 -115.17268 11199 ft 281 kts 97°
2026-05-05 03:36 36.00614 -115.14904 11118 ft 270 kts 98°
2026-05-05 03:36 36.00500 -115.12629 11005 ft 261 kts 98°
2026-05-05 03:36 36.00389 -115.10418 10865 ft 254 kts 99°
2026-05-05 03:36 36.00278 -115.08264 10692 ft 249 kts 98°
2026-05-05 03:37 36.00169 -115.06136 10442 ft 248 kts 99°
2026-05-05 03:37 36.00059 -115.04009 10169 ft 247 kts 98°
2026-05-05 03:37 35.99950 -115.01905 9960 ft 244 kts 99°
2026-05-05 03:37 35.99858 -114.99814 9592 ft 248 kts 90°
2026-05-05 03:38 36.00392 -114.97774 9233 ft 255 kts 58°
2026-05-05 03:38 36.01671 -114.96254 8896 ft 260 kts 30°
2026-05-05 03:38 36.03330 -114.95507 8669 ft 257 kts 12°
2026-05-05 03:38 36.05094 -114.95105 8353 ft 258 kts
2026-05-05 03:39 36.06850 -114.94741 8130 ft 255 kts
2026-05-05 03:39 36.08608 -114.94364 7840 ft 256 kts
2026-05-05 03:39 36.10354 -114.94031 7611 ft 251 kts 359°
2026-05-05 03:39 36.11976 -114.94524 7509 ft 234 kts 324°
2026-05-05 03:40 36.13107 -114.95847 7342 ft 220 kts 299°
2026-05-05 03:40 36.13735 -114.97524 7105 ft 213 kts 277°
2026-05-05 03:40 36.13888 -114.99312 6898 ft 207 kts 269°
2026-05-05 03:40 36.13974 -115.01084 6668 ft 207 kts 269°
2026-05-05 03:41 36.14060 -115.02838 6495 ft 202 kts 269°
2026-05-05 03:41 36.14145 -115.04553 6167 ft 200 kts 270°
2026-05-05 03:41 36.14228 -115.06185 5972 ft 186 kts 270°
2026-05-05 03:41 36.14244 -115.07796 5270 ft 190 kts 266°
2026-05-05 03:42 36.14222 -115.09450 4561 ft 194 kts 266°
2026-05-05 03:42 36.14141 -115.11087 3848 ft 192 kts 257°
2026-05-05 03:42 36.13820 -115.12584 3328 ft 177 kts 248°
2026-05-05 03:42 36.13227 -115.13794 2946 ft 156 kts 217°
2026-05-05 03:43 36.12305 -115.14209 2758 ft 131 kts 202°
2026-05-05 03:43 36.11532 -115.14727 2599 ft 128 kts 211°
2026-05-05 03:43 36.10738 -115.15208 2420 ft 130 kts 208°
2026-05-05 03:43 36.09907 -115.15674 2181 ft 128 kts 208°
2026-05-05 03:44 36.09142 -115.16108 2120 ft 107 kts 209°
2026-05-05 03:44 36.08607 -115.16424 2135 ft 56 kts 205°
2026-05-05 03:44 36.08443 -115.16547 2139 ft 14 kts 234°
2026-05-05 03:44 36.08395 -115.16634 2147 ft 7 kts 237°
2026-05-05 03:45 36.08396 -115.16682 2152 ft 7 kts 331°
2026-05-05 03:45 36.08460 -115.16657 2150 ft 15 kts 25°
2026-05-05 03:45 36.08579 -115.16589 2146 ft 21 kts 25°
2026-05-05 03:45 36.08711 -115.16514 2142 ft 21 kts 24°
2026-05-05 03:46 36.08843 -115.16440 2136 ft 20 kts 26°
2026-05-05 03:46 36.08952 -115.16410 2137 ft 16 kts 331°
2026-05-05 03:46 36.09043 -115.16419 2138 ft 14 kts
2026-05-05 03:46 36.09066 -115.16500 2144 ft 11 kts 272°
2026-05-05 03:47 36.09107 -115.16566 2148 ft 10 kts 337°
2026-05-05 03:47 36.09157 -115.16569 2148 ft 5 kts 28°
2026-05-05 03:47 36.09170 -115.16539 2146 ft 0 kts 73°